Location: Pallagorio
(39.3000°N, 16.9000°E)
Time: 00:42:41
(UTC+00:00)

Nadezhda 4 Rocket - Pass Details

Date: 24 January 2021
Orbit: 949 x 992 km, 83.0° (Epoch: 08 March)

Event Time Altitude Azimuth Distance (km) Brightness Sun altitude
Rises 16:57:59 0° 188° (S) 3,672 7.3 -10.7°
Reaches altitude 10° 17:00:30 10° 189° (S) 2,722 6.7 -11.2°
Maximum altitude 17:06:45 82° 277° (W) 987 4.1 -12.3°
Drops below altitude 10° 17:12:58 10° 5° (N) 2,709 6.1 -13.5°
Sets 17:15:28 0° 7° (N) 3,654 6.8 -14.0°
